TimeEDT,TemperatureF,Dew PointF,Humidity,Sea Level PressureIn,VisibilityMPH,Wind Direction,Wind SpeedMPH,Gust SpeedMPH,PrecipitationIn,Events,Conditions,WindDirDegrees,DateUTC
12:15 AM,64.4,53.6,68,30.13,10.0,ESE,9.2,-,N/A,,Clear,120,2013-05-27 04:15:00
12:35 AM,64.4,53.6,68,30.13,10.0,ESE,9.2,-,N/A,,Clear,120,2013-05-27 04:35:00
12:55 AM,64.4,53.6,68,30.13,10.0,SE,8.1,-,N/A,,Clear,130,2013-05-27 04:55:00
1:15 AM,64.4,53.6,68,30.12,10.0,SE,6.9,-,N/A,,Clear,140,2013-05-27 05:15:00
1:35 AM,64.4,51.8,64,30.12,10.0,SE,8.1,-,N/A,,Clear,130,2013-05-27 05:35:00
1:55 AM,64.4,53.6,68,30.12,10.0,SE,6.9,-,N/A,,Clear,140,2013-05-27 05:55:00
2:15 AM,64.4,53.6,68,30.11,10.0,SE,6.9,-,N/A,,Clear,140,2013-05-27 06:15:00
2:35 AM,64.4,51.8,64,30.10,10.0,SE,8.1,-,N/A,,Clear,140,2013-05-27 06:35:00
2:55 AM,64.4,51.8,64,30.10,10.0,SSE,8.1,-,N/A,,Clear,150,2013-05-27 06:55:00
3:15 AM,64.4,51.8,64,30.10,10.0,SE,8.1,-,N/A,,Partly Cloudy,140,2013-05-27 07:15:00
3:35 AM,64.4,51.8,64,30.09,10.0,SSE,5.8,-,N/A,,Partly Cloudy,150,2013-05-27 07:35:00
3:55 AM,62.6,51.8,68,30.09,10.0,SE,4.6,-,N/A,,Mostly Cloudy,140,2013-05-27 07:55:00
4:15 AM,64.4,51.8,64,30.09,10.0,SE,6.9,-,N/A,,Overcast,140,2013-05-27 08:15:00
4:35 AM,62.6,51.8,68,30.09,10.0,SSE,5.8,-,N/A,,Partly Cloudy,150,2013-05-27 08:35:00
4:55 AM,62.6,51.8,68,30.09,10.0,SE,4.6,-,N/A,,Clear,140,2013-05-27 08:55:00
5:15 AM,62.6,53.6,72,30.09,10.0,ESE,4.6,-,N/A,,Scattered Clouds,120,2013-05-27 09:15:00
5:35 AM,62.6,53.6,72,30.10,10.0,East,4.6,-,N/A,,Mostly Cloudy,100,2013-05-27 09:35:00
5:55 AM,62.6,53.6,72,30.10,10.0,ESE,5.8,-,N/A,,Scattered Clouds,120,2013-05-27 09:55:00
6:15 AM,62.6,53.6,72,30.10,10.0,ESE,6.9,-,N/A,,Clear,120,2013-05-27 10:15:00
6:35 AM,62.6,51.8,68,30.10,10.0,SSE,6.9,-,N/A,,Clear,150,2013-05-27 10:35:00
6:55 AM,62.6,51.8,68,30.10,10.0,SE,8.1,-,N/A,,Clear,140,2013-05-27 10:55:00
7:15 AM,62.6,51.8,68,30.11,10.0,SE,6.9,-,N/A,,Clear,140,2013-05-27 11:15:00
7:35 AM,60.8,53.6,77,30.11,10.0,SE,8.1,-,N/A,,Clear,140,2013-05-27 11:35:00
7:55 AM,64.4,53.6,68,30.10,10.0,SE,9.2,-,N/A,,Scattered Clouds,140,2013-05-27 11:55:00
8:15 AM,64.4,53.6,68,30.10,10.0,SE,8.1,-,N/A,,Partly Cloudy,140,2013-05-27 12:15:00
8:35 AM,66.2,53.6,64,30.09,10.0,SSE,9.2,-,N/A,,Partly Cloudy,150,2013-05-27 12:35:00
8:55 AM,68.0,55.4,64,30.08,10.0,SSE,5.8,-,N/A,,Partly Cloudy,160,2013-05-27 12:55:00
9:15 AM,69.8,55.4,60,30.08,10.0,South,11.5,17.3,N/A,,Clear,170,2013-05-27 13:15:00
9:35 AM,71.6,55.4,57,30.08,10.0,SSW,11.5,-,N/A,,Clear,200,2013-05-27 13:35:00
9:55 AM,73.4,57.2,57,30.07,10.0,South,11.5,-,N/A,,Clear,180,2013-05-27 13:55:00
10:15 AM,73.4,57.2,57,30.06,10.0,South,10.4,-,N/A,,Clear,190,2013-05-27 14:15:00
10:35 AM,77.0,59.0,54,30.07,10.0,South,12.7,-,N/A,,Clear,190,2013-05-27 14:35:00
10:55 AM,78.8,60.8,54,30.07,10.0,South,15.0,-,N/A,,Clear,190,2013-05-27 14:55:00
11:15 AM,78.8,60.8,54,30.07,10.0,SW,17.3,-,N/A,,Clear,220,2013-05-27 15:15:00
11:35 AM,78.8,60.8,54,30.06,10.0,SSW,17.3,23.0,N/A,,Clear,210,2013-05-27 15:35:00
11:55 AM,80.6,62.6,54,30.06,10.0,SSW,15.0,23.0,N/A,,Clear,200,2013-05-27 15:55:00
12:16 PM,80.6,64.4,58,30.06,10.0,SSW,16.1,24.2,N/A,,Mostly Cloudy,210,2013-05-27 16:16:00
12:35 PM,82.4,64.4,54,30.06,10.0,SSW,18.4,-,N/A,,Scattered Clouds,210,2013-05-27 16:35:00
12:55 PM,80.6,64.4,58,30.05,10.0,SSW,16.1,23.0,N/A,,Scattered Clouds,200,2013-05-27 16:55:00
1:15 PM,82.4,64.4,54,30.04,10.0,SSW,16.1,24.2,N/A,,Scattered Clouds,210,2013-05-27 17:15:00
1:35 PM,82.4,64.4,54,30.03,10.0,SW,17.3,27.6,N/A,,Partly Cloudy,220,2013-05-27 17:35:00
1:55 PM,82.4,64.4,54,30.02,10.0,SSW,13.8,23.0,N/A,,Scattered Clouds,200,2013-05-27 17:55:00
2:15 PM,82.4,62.6,51,30.01,10.0,SSW,20.7,28.8,N/A,,Mostly Cloudy,200,2013-05-27 18:15:00
2:35 PM,82.4,62.6,51,30.01,10.0,SSW,15.0,23.0,N/A,,Scattered Clouds,200,2013-05-27 18:35:00
2:55 PM,84.2,62.6,48,30.02,10.0,SW,19.6,25.3,N/A,,Scattered Clouds,220,2013-05-27 18:55:00
3:15 PM,84.2,62.6,48,30.02,10.0,SW,18.4,23.0,N/A,,Clear,220,2013-05-27 19:15:00
4:36 PM,82.4,57.2,42,29.99,10.0,SW,18.4,21.9,N/A,,Clear,220,2013-05-27 20:36:00
4:55 PM,84.2,57.2,40,29.99,10.0,SSW,17.3,24.2,N/A,,Partly Cloudy,200,2013-05-27 20:55:00
5:15 PM,84.2,57.2,40,29.98,10.0,SSW,16.1,27.6,N/A,,Partly Cloudy,200,2013-05-27 21:15:00
5:35 PM,84.2,57.2,40,29.98,10.0,SSW,19.6,25.3,N/A,,Clear,200,2013-05-27 21:35:00
5:55 PM,82.4,59.0,45,29.97,10.0,South,17.3,26.5,N/A,,Clear,190,2013-05-27 21:55:00
6:15 PM,82.4,57.2,42,29.98,10.0,SSW,16.1,24.2,N/A,,Partly Cloudy,200,2013-05-27 22:15:00
6:35 PM,80.6,57.2,45,29.97,10.0,SSW,18.4,26.5,N/A,,Clear,200,2013-05-27 22:35:00
6:55 PM,80.6,57.2,45,29.98,10.0,SSW,17.3,21.9,N/A,,Partly Cloudy,210,2013-05-27 22:55:00
7:15 PM,80.6,57.2,45,29.97,10.0,SSW,12.7,20.7,N/A,,Partly Cloudy,200,2013-05-27 23:15:00
7:35 PM,78.8,57.2,47,29.97,10.0,South,19.6,24.2,N/A,,Clear,190,2013-05-27 23:35:00
7:55 PM,78.8,57.2,47,29.97,10.0,South,13.8,20.7,N/A,,Clear,190,2013-05-27 23:55:00
8:15 PM,78.8,57.2,47,29.96,10.0,South,13.8,19.6,N/A,,Partly Cloudy,190,2013-05-28 00:15:00
8:35 PM,77.0,57.2,50,29.95,10.0,South,16.1,20.7,N/A,,Clear,180,2013-05-28 00:35:00
8:55 PM,77.0,59.0,54,29.97,10.0,South,12.7,-,N/A,,Clear,190,2013-05-28 00:55:00
9:15 PM,77.0,59.0,54,29.98,10.0,SSW,10.4,-,N/A,,Clear,210,2013-05-28 01:15:00
9:35 PM,73.4,60.8,65,30.04,10.0,WNW,25.3,-,N/A,Thunderstorm,Mostly Cloudy,290,2013-05-28 01:35:00
9:55 PM,66.2,60.8,83,30.04,10.0,WNW,13.8,26.5,0.01,,Mostly Cloudy,300,2013-05-28 01:55:00
10:15 PM,66.2,60.8,83,30.01,10.0,SW,8.1,-,0.02,,Overcast,230,2013-05-28 02:15:00
10:35 PM,66.2,60.8,83,29.99,10.0,SSE,6.9,-,0.03,,Mostly Cloudy,150,2013-05-28 02:35:00
11:15 PM,66.2,60.8,83,30.00,10.0,SSE,9.2,-,N/A,,Partly Cloudy,150,2013-05-28 03:15:00
11:35 PM,66.2,62.6,88,29.97,10.0,South,9.2,-,N/A,,Mostly Cloudy,170,2013-05-28 03:35:00
11:55 PM,68.0,60.8,78,29.95,10.0,SSE,11.5,19.6,N/A,,Scattered Clouds,150,2013-05-28 03:55:00